STARLINK-32360 (61007 NORAD) Tracking and Keplerian Element Data

This shows tracking and keplerian element data for the satellite.

Feedback or suggestion? Click here.




ElementValue
Catalog61007
NameSTARLINK-32360
Epoch Orbit707
Epoch Day286.86004993
Epoch Year2024
RAAN286.7324
Inclination53.1439
Eccentricity0.0001642
Argument of Perigee90.0815
Mean Anonmoly270.0397
Mean Motion15.83835782
Decay Rate-0.00053193
L11 61007U 24158T 24286.86004993 -.00053193 00000+0 -23275-3 0 9999
L22 61007 53.1439 286.7324 0001642 90.0815 270.0397 15.83835782 7071



Live tracking and technical data element details for STARLINK-32360 (NORAD 61007). STARLINK-32360 can be tracked NOW for your location showing map with azimuth and elevation plus other details from your city location.







IsCatalogInMostPopularTable: catalog: 61007, numindb: 9
Update: records affected: 1



GetName: 61007 STARLINK-32360

Hit Count: updated at: Tue, 03 Dec 2024 02:51:49 GMT